N99TT MYNN-MYLD

Flight info

Callsign N99TT
Flight time N/A
Altitude 25000
Route BOSAR
Aircraft C750/M-SBDE3FGHRWXY/S

Departure

Time N/A
Airport Lynden Pindling International Airport (MYNN)

Arrival

Time 2026-04-26 01:17
Airport Deadman's Cay Airport (MYLD)
Time Latitude Longitude Altitude Speed Heading
2026-04-26 00:50 24.66100 -76.93710 13004 ft 424 kts 131°
2026-04-26 00:51 24.64158 -76.91250 13003 ft 424 kts 131°
2026-04-26 00:51 24.62235 -76.88814 13003 ft 424 kts 131°
2026-04-26 00:51 24.60290 -76.86350 13003 ft 424 kts 131°
2026-04-26 00:51 24.58349 -76.83893 13003 ft 423 kts 132°
2026-04-26 00:52 24.56436 -76.81473 13005 ft 423 kts 132°
2026-04-26 00:52 24.54488 -76.79013 13001 ft 423 kts 131°
2026-04-26 00:52 24.52542 -76.76553 13002 ft 423 kts 132°
2026-04-26 00:52 24.50618 -76.74120 13003 ft 423 kts 131°
2026-04-26 00:53 24.48688 -76.71688 13003 ft 423 kts 132°
2026-04-26 00:53 24.46739 -76.69226 13004 ft 423 kts 132°
2026-04-26 00:53 24.44819 -76.66808 13004 ft 423 kts 132°
2026-04-26 00:53 24.42868 -76.64347 13003 ft 423 kts 132°
2026-04-26 00:54 24.40949 -76.61930 13001 ft 423 kts 132°
2026-04-26 00:54 24.39010 -76.59487 13002 ft 423 kts 132°
2026-04-26 00:54 24.37070 -76.57049 13003 ft 423 kts 132°
2026-04-26 00:54 24.35133 -76.54609 13003 ft 423 kts 132°
2026-04-26 00:55 24.33188 -76.52166 13002 ft 423 kts 132°
2026-04-26 00:55 24.31272 -76.49758 12998 ft 423 kts 132°
2026-04-26 00:55 24.29328 -76.47317 13000 ft 423 kts 132°
2026-04-26 00:55 24.27390 -76.44884 13002 ft 423 kts 132°
2026-04-26 00:56 24.25451 -76.42450 12999 ft 423 kts 132°
2026-04-26 00:56 24.23506 -76.40013 12999 ft 423 kts 132°
2026-04-26 00:56 24.21565 -76.37578 13000 ft 424 kts 132°
2026-04-26 00:56 24.19644 -76.35173 13001 ft 424 kts 132°
2026-04-26 00:57 24.17698 -76.32737 12995 ft 423 kts 133°
2026-04-26 00:57 24.15753 -76.30301 12994 ft 423 kts 132°
2026-04-26 00:57 24.13811 -76.27874 12994 ft 423 kts 132°
2026-04-26 00:57 24.11856 -76.25429 12993 ft 423 kts 132°
2026-04-26 00:58 24.09933 -76.23025 12994 ft 423 kts 133°
2026-04-26 00:58 24.07985 -76.20592 12993 ft 423 kts 132°
2026-04-26 00:58 24.06048 -76.18175 12992 ft 423 kts 132°
2026-04-26 00:58 24.04099 -76.15743 12995 ft 423 kts 133°
2026-04-26 00:59 24.02172 -76.13341 12992 ft 423 kts 133°
2026-04-26 00:59 24.00227 -76.10915 12991 ft 423 kts 132°
2026-04-26 00:59 23.98267 -76.08473 12990 ft 423 kts 133°
2026-04-26 00:59 23.96363 -76.06093 13496 ft 405 kts 132°
2026-04-26 01:00 23.94639 -76.03905 14234 ft 390 kts 133°
2026-04-26 01:00 23.92814 -76.01691 14552 ft 386 kts 133°
2026-04-26 01:00 23.91019 -75.99450 14553 ft 393 kts 133°
2026-04-26 01:00 23.89197 -75.97192 14558 ft 400 kts 133°
2026-04-26 01:01 23.87361 -75.94910 14560 ft 405 kts 133°
2026-04-26 01:01 23.85477 -75.92571 14554 ft 411 kts 133°
2026-04-26 01:01 23.83554 -75.90183 14560 ft 420 kts 133°
2026-04-26 01:01 23.81592 -75.87748 14561 ft 428 kts 133°
2026-04-26 01:02 23.79622 -75.85307 14558 ft 434 kts 133°
2026-04-26 01:02 23.77593 -75.82793 14561 ft 440 kts 133°
2026-04-26 01:02 23.75579 -75.80296 14560 ft 444 kts 133°
2026-04-26 01:02 23.73527 -75.77757 14555 ft 448 kts 133°
2026-04-26 01:03 23.71453 -75.75189 14559 ft 451 kts 133°
2026-04-26 01:03 23.69362 -75.72602 14557 ft 453 kts 133°
2026-04-26 01:03 23.67293 -75.70047 14553 ft 450 kts 133°
2026-04-26 01:03 23.65202 -75.67461 14554 ft 447 kts 133°
2026-04-26 01:04 23.63143 -75.64921 14552 ft 446 kts 133°
2026-04-26 01:04 23.61095 -75.62390 14556 ft 444 kts 133°
2026-04-26 01:04 23.59065 -75.59888 14553 ft 443 kts 133°
2026-04-26 01:04 23.57016 -75.57360 14555 ft 441 kts 133°
2026-04-26 01:05 23.54977 -75.54849 14556 ft 440 kts 133°
2026-04-26 01:05 23.52951 -75.52353 14489 ft 441 kts 133°
2026-04-26 01:05 23.50907 -75.49837 14157 ft 448 kts 133°
2026-04-26 01:05 23.48887 -75.47345 13654 ft 417 kts 133°
2026-04-26 01:06 23.47067 -75.45102 13212 ft 367 kts 133°
2026-04-26 01:06 23.45445 -75.43109 12833 ft 345 kts 133°
2026-04-26 01:06 23.43893 -75.41206 12339 ft 331 kts 133°
2026-04-26 01:06 23.42387 -75.39355 11838 ft 319 kts 133°
2026-04-26 01:07 23.40940 -75.37579 11350 ft 309 kts 133°
2026-04-26 01:07 23.39531 -75.35850 10859 ft 301 kts 133°
2026-04-26 01:07 23.38157 -75.34163 10367 ft 294 kts 133°
2026-04-26 01:07 23.36827 -75.32533 9879 ft 288 kts 133°
2026-04-26 01:08 23.35498 -75.30901 9383 ft 283 kts 133°
2026-04-26 01:08 23.34194 -75.29306 8887 ft 278 kts 132°
2026-04-26 01:08 23.32924 -75.27747 8398 ft 274 kts 132°
2026-04-26 01:08 23.31601 -75.26251 7895 ft 270 kts 143°
2026-04-26 01:09 23.29932 -75.25440 7424 ft 264 kts 168°
2026-04-26 01:09 23.28145 -75.25036 6951 ft 260 kts 169°
2026-04-26 01:09 23.26359 -75.24647 6460 ft 258 kts 169°
2026-04-26 01:09 23.24615 -75.24280 5869 ft 255 kts 169°
2026-04-26 01:10 23.22879 -75.23933 5223 ft 249 kts 169°
2026-04-26 01:10 23.21261 -75.23290 4375 ft 249 kts 141°
2026-04-26 01:10 23.20099 -75.21950 3600 ft 244 kts 126°
2026-04-26 01:10 23.19343 -75.20333 2772 ft 240 kts 99°
2026-04-26 01:11 23.19237 -75.18546 2009 ft 234 kts 90°
2026-04-26 01:11 23.19106 -75.16840 1545 ft 213 kts 97°
2026-04-26 01:11 23.18892 -75.15357 1218 ft 196 kts 104°
2026-04-26 01:11 23.18519 -75.14059 984 ft 156 kts 105°
2026-04-26 01:12 23.18238 -75.13032 717 ft 130 kts 100°
2026-04-26 01:12 23.18037 -75.12086 399 ft 129 kts 96°
2026-04-26 01:12 23.18010 -75.11096 233 ft 137 kts 88°
2026-04-26 01:12 23.18015 -75.10060 300 ft 144 kts 89°
2026-04-26 01:13 23.17609 -75.09038 184 ft 161 kts 135°
2026-04-26 01:13 23.16624 -75.08376 371 ft 167 kts 153°
2026-04-26 01:13 23.15447 -75.08237 671 ft 174 kts 198°
2026-04-26 01:13 23.14838 -75.09293 681 ft 185 kts 276°
2026-04-26 01:14 23.15459 -75.10474 605 ft 181 kts 329°
2026-04-26 01:14 23.16573 -75.10738 564 ft 166 kts 30°
2026-04-26 01:14 23.17480 -75.10001 346 ft 170 kts 49°
2026-04-26 01:14 23.18251 -75.09010 207 ft 171 kts 12°
2026-04-26 01:15 23.19293 -75.09187 493 ft 156 kts 335°
2026-04-26 01:15 23.20161 -75.10074 378 ft 187 kts 311°
2026-04-26 01:15 23.20921 -75.11281 499 ft 194 kts 296°
2026-04-26 01:15 23.20917 -75.12701 526 ft 210 kts 240°
2026-04-26 01:16 23.19765 -75.13563 689 ft 194 kts 186°
2026-04-26 01:16 23.18643 -75.13088 658 ft 173 kts 135°
2026-04-26 01:16 23.17892 -75.12173 522 ft 150 kts 97°
2026-04-26 01:16 23.18004 -75.11087 375 ft 140 kts 84°
2026-04-26 01:17 23.18014 -75.10005 140 ft 143 kts 95°
2026-04-26 01:17 23.17890 -75.09012 18 ft 104 kts 86°
2026-04-26 01:17 23.17859 -75.08747 20 ft 12 kts 198°
2026-04-26 01:17 23.17882 -75.08979 18 ft 43 kts 281°
2026-04-26 01:18 23.17903 -75.09266 17 ft 16 kts 271°
2026-04-26 01:18 23.17835 -75.09350 15 ft 5 kts 224°
2026-04-26 01:18 23.17810 -75.09389 15 ft 3 kts 161°
2026-04-26 01:18 23.17806 -75.09381 15 ft 1 kts 124°
2026-04-26 01:19 23.17806 -75.09369 16 ft 1 kts 357°
2026-04-26 01:19 23.17808 -75.09371 15 ft 0 kts 312°
2026-04-26 01:19 23.17810 -75.09373 15 ft 0 kts 315°